This is the latest recevied weather packets stored in our database for station/object LA9NKA. If no packets are shown the sender has not sent any weather packets the latest 10 day(s).
| Time | Temp. | Humidity | Pressure | Rain* | Wind** | Luminosity | Snow |
|---|---|---|---|---|---|---|---|
| 1778350245 | - | 86% | 1019.8 hPa | 0 mm | - | - | - |
| 1778348503 | - | 86% | 1019.9 hPa | 0 mm | - | - | - |
| 1778343631 | - | 86% | 1020.3 hPa | 0 mm | - | - | - |
| 1778343027 | - | 86% | 1020.5 hPa | 0 mm | - | - | - |
| 1778341823 | - | 86% | 1020.4 hPa | 0 mm | - | - | - |
| 1778338842 | - | 86% | 1020.8 hPa | 0 mm | - | - | - |
| 1778338242 | - | 86% | 1020.9 hPa | 0 mm | - | - | - |
| 1778337788 | - | 86% | 1021.1 hPa | 0 mm | - | - | - |
| 1778333430 | - | 86% | 1021.4 hPa | 0.25 mm | - | - | - |
| 1778332258 | - | 86% | 1021.2 hPa | 0 mm | - | - | - |
| 1778331027 | - | 86% | 1021.4 hPa | 0 mm | - | - | - |
| 1778327541 | - | 86% | 1021.3 hPa | 0 mm | - | - | - |
| 1778322640 | - | 86% | 1021.3 hPa | 0.25 mm | - | - | - |
| 1778322036 | - | 86% | 1021 hPa | 0.51 mm | - | - | - |
| 1778318429 | - | 86% | 1020.9 hPa | 1.78 mm | - | - | - |
| 1778314854 | - | 86% | 1020.9 hPa | 2.79 mm | - | - | - |
| 1778311906 | - | 86% | 1020.2 hPa | 1.52 mm | - | - | - |
| 1778310702 | - | 86% | 1020.1 hPa | 1.02 mm | - | - | - |
| 1778309440 | - | 86% | 1019.8 hPa | 1.78 mm | - | - | - |
| 1778298621 | - | 86% | 1019.4 hPa | 0.25 mm | - | - | - |
| 1778297449 | - | 86% | 1019.5 hPa | 0.25 mm | - | - | - |
| 1778296848 | - | 86% | 1019.6 hPa | 0.25 mm | - | - | - |
| 1778295043 | - | 86% | 1019.5 hPa | 0 mm | - | - | - |
| 1778293299 | - | 86% | 1019.7 hPa | 0 mm | - | - | - |
| 1778286658 | - | 86% | 1019.8 hPa | 0 mm | - | - | - |
* Rain latest hour (hover to see other rain measurements)
** Current wind speed in m/s (hover to see current wind gust speed)